| time (UTC) | temp F | wind direction | speed knots | gust knots | rain 1hr in | rain 24hr in | rain mn in | humidity % | barometer mb |
| 20260503191512 | 53 | 148 | 3.5 | 5.2 | 0.00 | 0.00 | 0.00 | 77 | 1026.3 |
| 20260503190040 | 54 | 157 | 2.6 | 6.1 | 0.00 | 0.00 | 0.00 | 75 | 1026.3 |
| 20260503184509 | 55 | 131 | 2.6 | 6.1 | 0.00 | 0.00 | 0.00 | 73 | 1026.3 |
| 20260503183019 | 56 | 86 | 4.3 | 7.0 | 0.00 | 0.00 | 0.00 | 73 | 1026.3 |
| 20260503181524 | 56 | 111 | 4.3 | 9.6 | 0.00 | 0.00 | 0.00 | 72 | 1026.2 |
| 20260503180018 | 56 | 84 | 4.3 | 9.6 | 0.00 | 0.00 | 0.00 | 72 | 1026.3 |
| 20260503174521 | 56 | 108 | 5.2 | 8.7 | 0.00 | 0.00 | 0.00 | 73 | 1026.2 |
| 20260503173007 | 56 | 123 | 4.3 | 7.8 | 0.00 | 0.00 | 0.00 | 73 | 1026.3 |
| 20260503171524 | 56 | 101 | 5.2 | 7.0 | 0.00 | 0.00 | 0.00 | 74 | 1026.3 |
| 20260503054507 | 66 | 118 | 2.6 | 9.6 | 0.00 | 0.00 | 0.00 | 62 | 1024.6 |
| 20260503053012 | 65 | 133 | 5.2 | 11.3 | 0.00 | 0.00 | 0.00 | 62 | 1024.7 |
| 20260503051510 | 65 | 128 | 4.3 | 10.4 | 0.00 | 0.00 | 0.00 | 63 | 1024.9 |
| 20260503050011 | 64 | 165 | 3.5 | 7.8 | 0.00 | 0.00 | 0.00 | 64 | 1025.0 |
| 20260503041517 | 63 | 99 | 1.7 | 9.6 | 0.00 | 0.00 | 0.00 | 66 | 1025.6 |
| 20260503040016 | 63 | 139 | 4.3 | 10.4 | 0.00 | 0.00 | 0.00 | 67 | 1025.8 |
| 20260503034517 | 62 | 134 | 5.2 | 9.6 | 0.00 | 0.00 | 0.00 | 66 | 1026.0 |
| 20260503031517 | 60 | 112 | 7.0 | 12.2 | 0.00 | 0.00 | 0.00 | 70 | 1026.1 |
| 20260503030013 | 60 | 55 | 7.8 | 12.2 | 0.00 | 0.00 | 0.00 | 70 | 1026.1 |
| 20260503024518 | 60 | 130 | 3.5 | 9.6 | 0.00 | 0.00 | 0.00 | 70 | 1026.5 |
| 20260503023017 | 59 | 153 | 4.3 | 9.6 | 0.00 | 0.00 | 0.00 | 72 | 1026.7 |
| 20260503020017 | 58 | 131 | 5.2 | 10.4 | 0.00 | 0.00 | 0.00 | 73 | 1026.8 |
| 20260503014533 | 58 | 126 | 4.3 | 8.7 | 0.00 | 0.00 | 0.00 | 75 | 1026.7 |
| 20260503011519 | 56 | 154 | 2.6 | 10.4 | 0.00 | 0.00 | 0.00 | 77 | 1026.7 |
| 20260503010017 | 56 | 140 | 4.3 | 10.4 | 0.00 | 0.00 | 0.00 | 77 | 1026.7 |
| 20260503004515 | 56 | 131 | 2.6 | 7.8 | 0.00 | 0.00 | 0.00 | 77 | 1026.6 |
| 20260503003012 | 55 | 121 | 5.2 | 8.7 | 0.00 | 0.00 | 0.00 | 78 | 1026.5 |
| 20260503001519 | 54 | 134 | 2.6 | 4.3 | 0.00 | 0.00 | 0.00 | 81 | 1026.3 |
| 20260503000003 | 52 | 153 | 3.5 | 5.2 | 0.00 | 0.00 | 0.00 | 82 | 1026.3 |
| 20260502234515 | 51 | 126 | 2.6 | 5.2 | 0.00 | 0.00 | 0.00 | 83 | 1026.1 |
| 20260502233028 | 50 | 128 | 2.6 | 5.2 | 0.00 | 0.00 | 0.00 | 85 | 1026.1 |
| 20260502230020 | 49 | 121 | 2.6 | 5.2 | 0.00 | 0.00 | 0.00 | 86 | 1025.7 |
| 20260502223010 | 49 | 120 | 3.5 | 5.2 | 0.00 | 0.00 | 0.00 | 86 | 1025.2 |
| 20260502221520 | 49 | 128 | 2.6 | 3.5 | 0.00 | 0.00 | 0.00 | 87 | 1025.2 |
| 20260502220008 | 49 | 123 | 2.6 | 3.5 | 0.00 | 0.00 | 0.00 | 87 | 1025.1 |
| 20260502214516 | 49 | 123 | 2.6 | 3.5 | 0.00 | 0.00 | 0.00 | 86 | 1025.1 |
| 20260502213025 | 49 | 117 | 2.6 | 5.2 | 0.00 | 0.00 | 0.00 | 87 | 1025.0 |
| 20260502211519 | 49 | 94 | 3.5 | 3.5 | 0.00 | 0.00 | 0.00 | 87 | 1024.8 |
| 20260502210020 | 49 | 114 | 2.6 | 3.5 | 0.00 | 0.00 | 0.00 | 86 | 1024.9 |
| 20260502204526 | 50 | 134 | 1.7 | 3.5 | 0.00 | 0.00 | 0.00 | 85 | 1024.7 |
| 20260502203016 | 50 | 121 | 2.6 | 3.5 | 0.00 | 0.00 | 0.00 | 85 | 1024.7 |
| 20260502201521 | 50 | 121 | 1.7 | 2.6 | 0.00 | 0.00 | 0.00 | 84 | 1024.7 |
| 20260502194519 | 51 | 121 | 1.7 | 3.5 | 0.00 | 0.00 | 0.00 | 84 | 1024.7 |
| 20260502193026 | 51 | 113 | 2.6 | 3.5 | 0.00 | 0.00 | 0.00 | 84 | 1024.8 |